Time,TemperatureF,DewpointF,PressureIn,WindDirection,WindDirectionDegrees,WindSpeedMPH,WindSpeedGustMPH,Humidity,HourlyPrecipIn,Conditions,Clouds,dailyrainin,SoftwareType,DateUTC
2013-01-10 00:03:00,76.0,69.0,30.25,SE,130,4.0,12.0,79,0.00,,,0.00,,2013-01-10 05:03:00,
2013-01-10 00:12:00,76.0,69.0,30.25,SE,130,4.0,12.0,79,0.00,,,0.00,,2013-01-10 05:12:00,
2013-01-10 00:22:00,76.0,68.0,30.25,ESE,117,3.0,11.0,77,0.00,,,0.00,,2013-01-10 05:22:00,
2013-01-10 00:33:00,76.0,68.0,30.25,SE,129,4.0,12.0,77,0.00,,,0.00,,2013-01-10 05:33:00,
2013-01-10 00:43:00,76.0,68.0,30.25,SE,129,4.0,12.0,77,0.00,,,0.00,,2013-01-10 05:43:00,
2013-01-10 00:52:00,76.0,68.0,30.25,ESE,117,4.0,15.0,76,0.00,,,0.00,,2013-01-10 05:52:00,
2013-01-10 01:02:00,76.0,68.0,30.25,ESE,117,4.0,15.0,76,0.00,,,0.00,,2013-01-10 06:02:00,
2013-01-10 01:12:00,76.0,68.0,30.25,ESE,117,4.0,15.0,76,0.00,,,0.00,,2013-01-10 06:12:00,
2013-01-10 01:22:00,75.0,68.0,30.24,SSE,164,4.0,12.0,79,0.00,,,0.00,,2013-01-10 06:22:00,
2013-01-10 01:32:00,75.0,68.0,30.24,SE,134,5.0,16.0,80,0.00,,,0.00,,2013-01-10 06:32:00,
2013-01-10 01:42:00,75.0,68.0,30.24,SE,134,5.0,16.0,80,0.00,,,0.00,,2013-01-10 06:42:00,
2013-01-10 01:52:00,75.0,69.0,30.24,South,184,4.0,14.0,81,0.00,,,0.00,,2013-01-10 06:52:00,
2013-01-10 02:02:00,75.0,69.0,30.23,ESE,104,2.0,17.0,81,0.00,,,0.00,,2013-01-10 07:02:00,
2013-01-10 02:12:00,75.0,69.0,30.23,ESE,104,2.0,17.0,81,0.00,,,0.00,,2013-01-10 07:12:00,
2013-01-10 02:22:00,75.0,69.0,30.23,South,183,3.0,11.0,81,0.00,,,0.00,,2013-01-10 07:22:00,
2013-01-10 02:32:00,75.0,68.0,30.23,ESE,113,5.0,13.0,80,0.00,,,0.00,,2013-01-10 07:32:00,
2013-01-10 02:42:00,75.0,68.0,30.23,ESE,113,5.0,13.0,80,0.00,,,0.00,,2013-01-10 07:42:00,
2013-01-10 02:52:00,75.0,68.0,30.23,ENE,76,4.0,15.0,79,0.00,,,0.00,,2013-01-10 07:52:00,
2013-01-10 03:02:00,75.0,68.0,30.23,ESE,108,3.0,13.0,78,0.00,,,0.00,,2013-01-10 08:02:00,
2013-01-10 03:12:00,75.0,68.0,30.23,ESE,108,3.0,13.0,78,0.00,,,0.00,,2013-01-10 08:12:00,
2013-01-10 03:22:00,75.0,68.0,30.23,SE,129,2.0,11.0,78,0.00,,,0.00,,2013-01-10 08:22:00,
2013-01-10 03:32:00,75.0,68.0,30.22,ESE,104,4.0,15.0,78,0.00,,,0.00,,2013-01-10 08:32:00,
2013-01-10 03:42:00,75.0,68.0,30.22,ESE,104,4.0,15.0,78,0.00,,,0.00,,2013-01-10 08:42:00,
2013-01-10 03:52:00,75.0,68.0,30.22,East,98,5.0,13.0,79,0.00,,,0.00,,2013-01-10 08:52:00,
2013-01-10 04:02:00,75.0,68.0,30.23,SE,146,4.0,9.0,78,0.00,,,0.00,,2013-01-10 09:02:00,
2013-01-10 04:12:00,75.0,68.0,30.23,SE,146,4.0,9.0,78,0.00,,,0.00,,2013-01-10 09:12:00,
2013-01-10 04:22:00,75.0,68.0,30.23,SE,127,2.0,11.0,79,0.00,,,0.00,,2013-01-10 09:22:00,
2013-01-10 04:32:00,74.0,67.0,30.23,East,99,4.0,10.0,78,0.00,,,0.00,,2013-01-10 09:32:00,
2013-01-10 04:42:00,74.0,67.0,30.23,East,99,4.0,10.0,78,0.00,,,0.00,,2013-01-10 09:42:00,
2013-01-10 04:52:00,74.0,67.0,30.22,ESE,109,2.0,10.0,78,0.00,,,0.00,,2013-01-10 09:52:00,
2013-01-10 05:03:00,74.0,66.0,30.22,SSE,161,3.0,10.0,77,0.00,,,0.00,,2013-01-10 10:03:00,
2013-01-10 05:12:00,74.0,66.0,30.22,SSE,161,3.0,10.0,77,0.00,,,0.00,,2013-01-10 10:12:00,
2013-01-10 05:22:00,74.0,66.0,30.22,SSE,152,2.0,11.0,76,0.00,,,0.00,,2013-01-10 10:22:00,
2013-01-10 05:32:00,74.0,66.0,30.23,SE,134,2.0,9.0,77,0.00,,,0.00,,2013-01-10 10:32:00,
2013-01-10 05:42:00,74.0,66.0,30.23,SE,134,2.0,9.0,77,0.00,,,0.00,,2013-01-10 10:42:00,
2013-01-10 05:52:00,74.0,66.0,30.22,SSE,150,3.0,9.0,77,0.00,,,0.00,,2013-01-10 10:52:00,
2013-01-10 06:02:00,74.0,66.0,30.22,ESE,123,4.0,12.0,77,0.00,,,0.00,,2013-01-10 11:02:00,
2013-01-10 06:12:00,74.0,66.0,30.22,ESE,123,4.0,12.0,77,0.00,,,0.00,,2013-01-10 11:12:00,
2013-01-10 06:22:00,74.0,66.0,30.22,ESE,119,4.0,10.0,77,0.00,,,0.00,,2013-01-10 11:22:00,
2013-01-10 06:33:00,74.0,66.0,30.22,East,80,4.0,10.0,77,0.00,,,0.00,,2013-01-10 11:33:00,
2013-01-10 06:43:00,74.0,66.0,30.22,East,80,4.0,10.0,77,0.00,,,0.00,,2013-01-10 11:43:00,
2013-01-10 06:52:00,74.0,67.0,30.23,SSE,160,1.0,8.0,78,0.00,,,0.00,,2013-01-10 11:52:00,
2013-01-10 07:03:00,74.0,67.0,30.23,ESE,118,4.0,11.0,79,0.00,,,0.00,,2013-01-10 12:03:00,
2013-01-10 07:12:00,74.0,67.0,30.23,ESE,118,4.0,11.0,79,0.00,,,0.00,,2013-01-10 12:12:00,
2013-01-10 07:22:00,74.0,66.0,30.23,ESE,119,4.0,9.0,76,0.00,,,0.00,,2013-01-10 12:22:00,
2013-01-10 07:33:00,74.0,66.0,30.24,SE,144,3.0,10.0,77,0.00,,,0.00,,2013-01-10 12:33:00,
2013-01-10 07:43:00,74.0,66.0,30.24,SE,144,3.0,10.0,77,0.00,,,0.00,,2013-01-10 12:43:00,
2013-01-10 07:53:00,74.0,66.0,30.24,SE,130,4.0,10.0,77,0.00,,,0.00,,2013-01-10 12:53:00,
2013-01-10 08:02:00,74.0,66.0,30.25,ESE,120,2.0,9.0,76,0.00,,,0.00,,2013-01-10 13:02:00,
2013-01-10 08:12:00,74.0,66.0,30.25,ESE,120,2.0,9.0,76,0.00,,,0.00,,2013-01-10 13:12:00,
2013-01-10 08:22:00,74.0,65.0,30.25,ESE,123,2.0,11.0,74,0.00,,,0.00,,2013-01-10 13:22:00,
2013-01-10 08:32:00,75.0,66.0,30.26,ENE,69,3.0,10.0,74,0.00,,,0.00,,2013-01-10 13:32:00,
2013-01-10 08:42:00,75.0,66.0,30.26,ENE,69,3.0,10.0,74,0.00,,,0.00,,2013-01-10 13:42:00,
2013-01-10 08:52:00,75.0,66.0,30.26,ESE,119,3.0,13.0,73,0.00,,,0.00,,2013-01-10 13:52:00,
2013-01-10 09:02:00,75.0,66.0,30.26,ESE,119,3.0,13.0,73,0.00,,,0.00,,2013-01-10 14:02:00,
2013-01-10 09:12:00,75.0,66.0,30.26,ESE,119,3.0,13.0,73,0.00,,,0.00,,2013-01-10 14:12:00,
2013-01-10 09:22:00,76.0,67.0,30.27,SE,125,2.0,9.0,73,0.00,,,0.00,,2013-01-10 14:22:00,
2013-01-10 09:33:00,76.0,66.0,30.27,South,171,4.0,11.0,71,0.00,,,0.00,,2013-01-10 14:33:00,
2013-01-10 09:43:00,76.0,66.0,30.27,South,171,4.0,11.0,71,0.00,,,0.00,,2013-01-10 14:43:00,
2013-01-10 09:53:00,77.0,67.0,30.28,SSE,156,3.0,9.0,71,0.00,,,0.00,,2013-01-10 14:53:00,
2013-01-10 10:03:00,77.0,66.0,30.27,SE,145,3.0,10.0,70,0.00,,,0.00,,2013-01-10 15:03:00,
2013-01-10 10:12:00,77.0,66.0,30.27,SE,145,3.0,10.0,70,0.00,,,0.00,,2013-01-10 15:12:00,
2013-01-10 10:23:00,77.0,66.0,30.27,SE,145,3.0,10.0,70,0.00,,,0.00,,2013-01-10 15:23:00,
2013-01-10 10:33:00,77.0,66.0,30.26,SE,134,2.0,8.0,69,0.00,,,0.00,,2013-01-10 15:33:00,
2013-01-10 10:43:00,77.0,66.0,30.26,SE,134,2.0,8.0,69,0.00,,,0.00,,2013-01-10 15:43:00,
2013-01-10 10:53:00,77.0,66.0,30.26,East,100,5.0,11.0,70,0.00,,,0.00,,2013-01-10 15:53:00,
2013-01-10 11:03:00,77.0,66.0,30.25,ESE,114,4.0,9.0,70,0.00,,,0.00,,2013-01-10 16:03:00,
2013-01-10 11:13:00,77.0,66.0,30.25,ESE,114,4.0,9.0,70,0.00,,,0.00,,2013-01-10 16:13:00,
2013-01-10 11:23:00,78.0,67.0,30.25,ESE,119,5.0,11.0,70,0.00,,,0.00,,2013-01-10 16:23:00,
2013-01-10 11:33:00,78.0,68.0,30.25,SE,138,3.0,12.0,71,0.00,,,0.00,,2013-01-10 16:33:00,
2013-01-10 11:43:00,78.0,68.0,30.25,SE,138,3.0,12.0,71,0.00,,,0.00,,2013-01-10 16:43:00,
2013-01-10 11:53:00,78.0,67.0,30.24,SSE,159,4.0,9.0,70,0.00,,,0.00,,2013-01-10 16:53:00,
2013-01-10 12:03:00,78.0,67.0,30.23,SE,127,4.0,13.0,70,0.00,,,0.00,,2013-01-10 17:03:00,
2013-01-10 12:12:00,78.0,67.0,30.23,SE,127,4.0,13.0,70,0.00,,,0.00,,2013-01-10 17:12:00,
2013-01-10 12:22:00,78.0,67.0,30.22,SSE,155,4.0,12.0,68,0.00,,,0.00,,2013-01-10 17:22:00,
2013-01-10 12:33:00,78.0,66.0,30.21,ESE,117,3.0,11.0,66,0.00,,,0.00,,2013-01-10 17:33:00,
2013-01-10 12:43:00,78.0,66.0,30.21,ESE,117,3.0,11.0,66,0.00,,,0.00,,2013-01-10 17:43:00,
2013-01-10 12:53:00,78.0,65.0,30.20,SSE,152,5.0,17.0,65,0.00,,,0.00,,2013-01-10 17:53:00,
2013-01-10 13:03:00,78.0,65.0,30.19,SE,140,5.0,14.0,65,0.00,,,0.00,,2013-01-10 18:03:00,
2013-01-10 13:12:00,78.0,65.0,30.19,SE,140,5.0,14.0,65,0.00,,,0.00,,2013-01-10 18:12:00,
2013-01-10 13:23:00,78.0,65.0,30.19,SE,140,5.0,14.0,65,0.00,,,0.00,,2013-01-10 18:23:00,
2013-01-10 13:33:00,78.0,66.0,30.18,SE,130,4.0,11.0,66,0.00,,,0.00,,2013-01-10 18:33:00,
2013-01-10 13:44:00,78.0,65.0,30.17,East,81,4.0,12.0,64,0.00,,,0.00,,2013-01-10 18:44:00,
2013-01-10 13:53:00,78.0,65.0,30.17,East,81,4.0,12.0,64,0.00,,,0.00,,2013-01-10 18:53:00,
2013-01-10 14:03:00,78.0,65.0,30.16,SE,124,4.0,11.0,65,0.00,,,0.00,,2013-01-10 19:03:00,
2013-01-10 14:13:00,78.0,64.0,30.16,ESE,123,4.0,13.0,62,0.00,,,0.00,,2013-01-10 19:13:00,
2013-01-10 14:23:00,78.0,64.0,30.16,ESE,123,4.0,13.0,62,0.00,,,0.00,,2013-01-10 19:23:00,
2013-01-10 14:33:00,78.0,65.0,30.16,SSE,148,4.0,10.0,65,0.00,,,0.00,,2013-01-10 19:33:00,
2013-01-10 14:43:00,78.0,65.0,30.16,SSE,148,4.0,10.0,65,0.00,,,0.00,,2013-01-10 19:43:00,
2013-01-10 14:53:00,78.0,66.0,30.16,ENE,78,3.0,11.0,67,0.00,,,0.00,,2013-01-10 19:53:00,
2013-01-10 15:03:00,79.0,67.0,30.17,SSE,165,5.0,9.0,67,0.00,,,0.00,,2013-01-10 20:03:00,
2013-01-10 15:24:00,78.0,66.0,30.17,SSE,148,4.0,11.0,67,0.00,,,0.00,,2013-01-10 20:24:00,
2013-01-10 15:33:00,78.0,67.0,30.17,SSE,147,4.0,10.0,68,0.00,,,0.00,,2013-01-10 20:33:00,
2013-01-10 15:43:00,78.0,67.0,30.17,SSE,147,4.0,10.0,68,0.00,,,0.00,,2013-01-10 20:43:00,
2013-01-10 15:53:00,78.0,67.0,30.18,SE,132,2.0,11.0,70,0.00,,,0.00,,2013-01-10 20:53:00,
2013-01-10 16:04:00,77.0,67.0,30.19,SSE,163,3.0,8.0,71,0.00,,,0.00,,2013-01-10 21:04:00,
2013-01-10 16:13:00,77.0,67.0,30.20,ESE,120,2.0,8.0,72,0.00,,,0.00,,2013-01-10 21:13:00,
2013-01-10 16:23:00,77.0,67.0,30.20,ESE,120,2.0,8.0,72,0.00,,,0.00,,2013-01-10 21:23:00,
2013-01-10 16:33:00,77.0,68.0,30.20,SSE,150,1.0,8.0,73,0.00,,,0.00,,2013-01-10 21:33:00,
2013-01-10 16:43:00,77.0,68.0,30.20,SSE,150,1.0,8.0,73,0.00,,,0.00,,2013-01-10 21:43:00,
2013-01-10 16:53:00,77.0,68.0,30.21,SE,128,2.0,9.0,73,0.00,,,0.00,,2013-01-10 21:53:00,
2013-01-10 17:04:00,76.0,67.0,30.22,SE,140,0.0,8.0,74,0.00,,,0.00,,2013-01-10 22:04:00,
2013-01-10 17:13:00,76.0,67.0,30.22,ESE,116,0.0,7.0,75,0.00,,,0.00,,2013-01-10 22:13:00,
2013-01-10 17:26:00,76.0,67.0,30.22,ESE,116,0.0,7.0,75,0.00,,,0.00,,2013-01-10 22:26:00,
2013-01-10 17:33:00,76.0,67.0,30.22,ESE,109,0.0,4.0,75,0.00,,,0.00,,2013-01-10 22:33:00,
2013-01-10 17:43:00,76.0,67.0,30.22,ESE,109,0.0,4.0,75,0.00,,,0.00,,2013-01-10 22:43:00,
2013-01-10 18:03:00,76.0,68.0,30.22,ESE,113,0.0,3.0,76,0.00,,,0.00,,2013-01-10 23:03:00,
2013-01-10 18:13:00,76.0,68.0,30.22,SSE,166,0.0,5.0,76,0.00,,,0.00,,2013-01-10 23:13:00,
2013-01-10 18:22:00,75.0,67.0,30.22,ENE,68,2.0,7.0,77,0.00,,,0.00,,2013-01-10 23:22:00,
2013-01-10 18:23:00,76.0,68.0,30.22,SSE,166,0.0,5.0,76,0.00,,,0.00,,2013-01-10 23:23:00,
2013-01-10 18:33:00,75.0,67.0,30.22,ESE,109,0.0,4.0,77,0.00,,,0.00,,2013-01-10 23:33:00,
2013-01-10 18:43:00,75.0,67.0,30.22,ESE,109,0.0,4.0,77,0.00,,,0.00,,2013-01-10 23:43:00,
2013-01-10 18:53:00,75.0,67.0,30.22,ENE,68,2.0,7.0,77,0.00,,,0.00,,2013-01-10 23:53:00,
2013-01-10 19:03:00,75.0,67.0,30.22,ENE,68,2.0,7.0,77,0.00,,,0.00,,2013-01-11 00:03:00,
2013-01-10 19:33:00,75.0,67.0,30.23,SSE,167,1.0,8.0,75,0.00,,,0.00,,2013-01-11 00:33:00,
2013-01-10 19:43:00,75.0,67.0,30.23,SSE,167,1.0,8.0,75,0.00,,,0.00,,2013-01-11 00:43:00,
2013-01-10 19:53:00,75.0,67.0,30.23,South,186,1.0,5.0,76,0.00,,,0.00,,2013-01-11 00:53:00,
2013-01-10 20:03:00,75.0,67.0,30.23,ESE,115,0.0,5.0,76,0.00,,,0.00,,2013-01-11 01:03:00,
2013-01-10 20:13:00,75.0,67.0,30.23,West,265,1.0,5.0,76,0.00,,,0.00,,2013-01-11 01:13:00,
2013-01-10 20:23:00,75.0,67.0,30.23,West,265,1.0,5.0,76,0.00,,,0.00,,2013-01-11 01:23:00,
2013-01-10 20:34:00,75.0,67.0,30.23,SSE,160,1.0,5.0,75,0.00,,,0.00,,2013-01-11 01:34:00,
2013-01-10 20:43:00,75.0,67.0,30.23,SSE,160,1.0,5.0,75,0.00,,,0.00,,2013-01-11 01:43:00,
2013-01-10 20:53:00,75.0,67.0,30.23,ESE,111,2.0,6.0,75,0.00,,,0.00,,2013-01-11 01:53:00,
2013-01-10 21:03:00,75.0,67.0,30.23,SE,136,2.0,10.0,75,0.00,,,0.00,,2013-01-11 02:03:00,
2013-01-10 21:13:00,75.0,67.0,30.23,SE,136,1.0,8.0,76,0.00,,,0.00,,2013-01-11 02:13:00,
2013-01-10 21:23:00,75.0,67.0,30.23,SE,136,1.0,8.0,76,0.00,,,0.00,,2013-01-11 02:23:00,
2013-01-10 21:33:00,75.0,67.0,30.23,ESE,123,1.0,9.0,75,0.00,,,0.00,,2013-01-11 02:33:00,
2013-01-10 21:43:00,75.0,67.0,30.23,ESE,123,1.0,9.0,75,0.00,,,0.00,,2013-01-11 02:43:00,
2013-01-10 21:53:00,75.0,66.0,30.23,SE,126,0.0,8.0,74,0.00,,,0.00,,2013-01-11 02:53:00,
2013-01-10 22:03:00,75.0,66.0,30.23,SE,143,3.0,11.0,73,0.00,,,0.00,,2013-01-11 03:03:00,
2013-01-10 22:13:00,75.0,65.0,30.23,SE,131,3.0,10.0,71,0.00,,,0.00,,2013-01-11 03:13:00,
2013-01-10 22:23:00,75.0,65.0,30.23,SE,131,3.0,10.0,71,0.00,,,0.00,,2013-01-11 03:23:00,
2013-01-10 22:33:00,76.0,66.0,30.23,ESE,103,3.0,10.0,72,0.00,,,0.00,,2013-01-11 03:33:00,
2013-01-10 22:43:00,76.0,66.0,30.23,ESE,103,3.0,10.0,72,0.00,,,0.00,,2013-01-11 03:43:00,
2013-01-10 22:53:00,76.0,67.0,30.23,ESE,107,2.0,10.0,73,0.00,,,0.00,,2013-01-11 03:53:00,
2013-01-10 23:02:00,76.0,67.0,30.23,SSE,159,4.0,11.0,75,0.00,,,0.00,,2013-01-11 04:02:00,
2013-01-10 23:12:00,76.0,68.0,30.24,SSE,163,3.0,11.0,77,0.00,,,0.00,,2013-01-11 04:12:00,
2013-01-10 23:22:00,76.0,68.0,30.24,SSE,163,3.0,11.0,77,0.00,,,0.00,,2013-01-11 04:22:00,
2013-01-10 23:33:00,75.0,67.0,30.24,SE,145,3.0,8.0,76,0.00,,,0.00,,2013-01-11 04:33:00,
2013-01-10 23:43:00,75.0,67.0,30.24,SE,145,3.0,8.0,76,0.00,,,0.00,,2013-01-11 04:43:00,
2013-01-10 23:52:00,75.0,67.0,30.24,SE,130,4.0,11.0,77,0.00,,,0.00,,2013-01-11 04:52:00,